Weather History for Hilton Head Island, SC

Change the Weather History Date:

Friday, February 15, 2013

  Actual Average Record
Temperature  
Mean Temperature 50 °F -  
Max Temperature 57 °F 65 °F 57 °F (2014)
Min Temperature 42 °F 42 °F 41 °F (2014)
Degree Days  
Heating Degree Days 16    
Moisture  
Dew Point 43 °F    
Average Humidity 91    
Maximum Humidity 100    
Minimum Humidity 55    
Precipitation  
Precipitation 0.00 in - - ()
Sea Level Pressure  
Sea Level Pressure 30.06 in    
Wind  
Wind Speed 3 mph (NW)    
Max Wind Speed 7 mph    
Max Gust Speed -    
Visibility 9 miles    
Events      
Averages and records for this station are not official NWS values.
T = Trace of Precipitation, MM = Missing Value Source: NWS Daily Summary

Daily Weather History Graph

Daily Weather History Graph

Search for Another Location

Airport:

Trip Planner

Search our weather history database for the weather conditions in past years. The results will help you decide how hot, cold, wet, or windy it might be!

Date:

Astronomy

Feb. 15, 2013 Rise Set
Actual Time 7:05 AM EST 6:09 PM EST
Civil Twilight 6:40 AM EST 6:34 PM EST
Nautical Twilight 6:11 AM EST 7:02 PM EST
Astronomical Twilight 5:42 AM EST 7:31 PM EST
Moon 10:03 AM EST (2/15) 11:44 PM EST (2/15)
Length of Visible Light 11h 54m
Length of Day
11h 04m
Waxing Crescent, 30% of the Moon is Illuminated
Feb 15
Waxing Crescent
Feb 17
First Quarter
Feb 25
Full
Mar 4
Last Quarter
Mar 11
New

Hourly Weather History & Observations

Time (EST) Temp. Windchill Dew Point Humidity Pressure Visibility Wind Dir Wind Speed Gust Speed Precip Events Conditions
12:15 AM 42.8 °F 41.1 °F 42.8 °F 100% 30.07 in 10.0 mi NW 3.5 mph - 0.00 in   Clear
12:35 AM 42.8 °F - 42.8 °F 100% 30.09 in 7.0 mi Calm Calm - 0.00 in   Clear
12:55 AM 42.8 °F 41.1 °F 42.8 °F 100% 30.09 in 8.0 mi WNW 3.5 mph - 0.00 in   Clear
1:15 AM 42.8 °F 41.1 °F 42.8 °F 100% 30.08 in 8.0 mi WNW 3.5 mph - 0.00 in   Clear
1:35 AM 42.8 °F 41.1 °F 42.8 °F 100% 30.08 in 9.0 mi WNW 3.5 mph - 0.00 in   Clear
1:55 AM 42.8 °F 41.1 °F 42.8 °F 100% 30.08 in 10.0 mi NW 3.5 mph - 0.00 in   Clear
2:15 AM 44.6 °F 43.1 °F 44.6 °F 100% 30.08 in 10.0 mi NNW 3.5 mph - 0.00 in   Clear
2:35 AM 44.6 °F 43.1 °F 44.6 °F 100% 30.08 in 10.0 mi NW 3.5 mph - 0.00 in   Clear
2:55 AM 44.6 °F 42.2 °F 44.6 °F 100% 30.08 in 10.0 mi NNW 4.6 mph - 0.00 in   Clear
3:15 AM 44.6 °F 42.2 °F 44.6 °F 100% 30.06 in 10.0 mi NNW 4.6 mph - 0.00 in   Clear
3:35 AM 44.6 °F 41.4 °F 44.6 °F 100% 30.06 in 10.0 mi North 5.8 mph - 0.00 in   Clear
3:55 AM 46.4 °F 43.5 °F 46.4 °F 100% 30.06 in 10.0 mi North 5.8 mph - 0.00 in   Clear
4:15 AM 46.4 °F 42.9 °F 46.4 °F 100% 30.07 in 10.0 mi North 6.9 mph - 0.00 in   Clear
4:35 AM 44.6 °F 40.7 °F 44.6 °F 100% 30.08 in 10.0 mi NNW 6.9 mph - 0.00 in   Clear
4:55 AM 44.6 °F 40.7 °F 44.6 °F 100% 30.09 in 10.0 mi North 6.9 mph - 0.00 in   Clear
5:15 AM 44.6 °F 41.4 °F 44.6 °F 100% 30.09 in 10.0 mi North 5.8 mph - 0.00 in   Clear
5:35 AM 44.6 °F 40.7 °F 44.6 °F 100% 30.09 in 10.0 mi North 6.9 mph - 0.00 in   Clear
6:50 AM 44.6 °F 40.7 °F 42.8 °F 93% 30.11 in 10.0 mi North 6.9 mph - N/A   Clear
7:50 AM 46.4 °F 43.5 °F 42.8 °F 87% 30.11 in 10.0 mi North 5.8 mph - N/A   Clear
8:50 AM 50.0 °F - 42.8 °F 76% 30.12 in 10.0 mi North 5.8 mph - N/A   Clear
10:55 AM 53.6 °F - 42.8 °F 67% 30.13 in 10.0 mi North 6.9 mph - N/A   Clear
11:53 AM 57.2 °F - 42.8 °F 59% 30.12 in 10.0 mi Calm Calm - N/A   Clear
1:50 PM 57.2 °F - 41.0 °F 55% 30.06 in 10.0 mi SE 4.6 mph - N/A   Clear
2:50 PM 57.2 °F - 41.0 °F 55% 30.04 in 10.0 mi SE 5.8 mph - N/A   Clear
3:50 PM 57.2 °F - 42.8 °F 59% 30.02 in 10.0 mi South 6.9 mph - N/A   Clear
4:50 PM 55.4 °F - 41.0 °F 58% 30.01 in 10.0 mi SSE 4.6 mph - N/A   Clear
5:50 PM 57.2 °F - 42.8 °F 59% 30.01 in 10.0 mi Calm Calm - N/A   Clear
6:50 PM 51.8 °F - 42.8 °F 71% 30.02 in 10.0 mi Calm Calm - N/A   Clear
7:50 PM 48.2 °F - 42.8 °F 82% 30.01 in 10.0 mi Calm Calm - N/A   Clear
8:15 PM 44.6 °F - 44.6 °F 100% 30.02 in 10.0 mi Calm Calm - 0.00 in   Clear
8:35 PM 44.6 °F - 44.6 °F 100% 30.02 in 10.0 mi Calm Calm - 0.00 in   Clear
8:55 PM 44.6 °F - 44.6 °F 100% 30.02 in 10.0 mi Calm Calm - 0.00 in   Clear
9:15 PM 42.8 °F 41.1 °F 42.8 °F 100% 30.02 in 9.0 mi SSW 3.5 mph - 0.00 in   Clear
9:35 PM 42.8 °F - 42.8 °F 100% 30.02 in 8.0 mi Calm Calm - 0.00 in   Clear
9:55 PM 42.8 °F - 42.8 °F 100% 30.02 in 10.0 mi Calm Calm - 0.00 in   Clear
10:15 PM 42.8 °F 41.1 °F 42.8 °F 100% 30.02 in 9.0 mi SSW 3.5 mph - 0.00 in   Clear
10:35 PM 42.8 °F 41.1 °F 42.8 °F 100% 30.02 in 6.0 mi South 3.5 mph - 0.00 in   Clear
10:55 PM 42.8 °F 41.1 °F 42.8 °F 100% 30.02 in 8.0 mi SSW 3.5 mph - 0.00 in   Clear
11:15 PM 42.8 °F - 42.8 °F 100% 30.01 in 8.0 mi Calm Calm - 0.00 in   Clear
11:35 PM 42.8 °F - 42.8 °F 100% 30.01 in 8.0 mi Calm Calm - 0.00 in   Clear
11:55 PM 42.8 °F - 42.8 °F 100% 30.00 in 7.0 mi Calm Calm - 0.00 in   Clear